Regional Weather Roundup
Issued by NWS

Home | Current Version | Previous Version | Graphics & Text | Print | Product List | Glossary On
Versions: 1 2 3 4 5 6 7 8 9 10 11 12 13 14 15 16 17 18 19 20 21 22 23 24 25 26 27 28 29 30 31 32 33 34 35 36 37 38 39 40 41 42 43 44 45 46 47 48 49 50
000
ASUS45 KCYS 191010
RWRWY

WYOMING REGIONAL WEATHER ROUNDUP
NATIONAL WEATHER SERVICE CHEYENNE WY
400 AM MDT FRI SEP 19 2014

NOTE:  "FAIR" INDICATES FEW OR NO CLOUDS BELOW 12,000 FEET
WITH NO SIGNIFICANT WEATHER AND/OR OBSTRUCTIONS TO VISIBILITY.

WYZ001-191100-
YELLOWSTONE NATIONAL PARK

CITY           SKY/WX    TMP DP  RH WIND       PRES   REMARKS
LK YELLOWSTONE   N/A     41  39  93 NW5       30.15S
W YELLOWSTONE  NOT AVBL

$$
WYZ002>013-054>058-071-098>099-191100-
NORTHERN WYOMING

CITY           SKY/WX    TMP DP  RH WIND       PRES   REMARKS
JACKSON        PTCLDY    45  45 100 W3        30.08R
CODY             N/A    N/A N/A N/A MISG        N/A
GREYBULL       CLOUDY    60  57  89 E7        29.87F
WORLAND        CLOUDY    58  55  90 NE5       29.90S
SHERIDAN       CLOUDY    63  53  70 W9        29.83R
BUFFALO        CLOUDY    62  51  67 S13       29.92F
GILLETTE       CLOUDY    58  55  90 W7        29.87F
HULETT         CLOUDY    61  52  72 MISG      29.86
NEWCASTLE      FAIR      64  45  48 N7        29.83

$$
WYZ014>020-022>026-101>103-191100-
CENTRAL WYOMING

CITY           SKY/WX    TMP DP  RH WIND       PRES   REMARKS
BIG PINEY      LGT RAIN  54  47  77 E9        30.11R
PINEDALE       CLOUDY    52  50  93 S3        30.14R
DUBOIS         FAIR      48  43  81 NW9       30.06S
LANDER         CLOUDY    70  41  34 W6        29.95F
RIVERTON       LGT RAIN  59  50  72 SE8       29.98F
CASPER         MOCLDY    56  46  69 CALM      29.98F
DOUGLAS        PTCLDY    55  47  74 W12       29.99R

$$
WYZ021-027>030-104>119-191100-
SOUTHERN WYOMING

CITY           SKY/WX    TMP DP  RH WIND       PRES   REMARKS
EVANSTON       LGT RAIN  53  48  83 E7        30.15F
KEMMERER       RAIN      52  45  76 SE7       30.14F
FORT BRIDGER   CLOUDY    55  52  91 S6        30.19S
ROCK SPRINGS   MOCLDY    57  45  64 NW13      30.13R
DIXON          FAIR      45  39  79 SE6       30.13R
RAWLINS        PTCLDY    55  36  48 W9        30.09R
SARATOGA       FAIR      52  37  58 S6        30.11R
LARAMIE        PTCLDY    48  36  63 S5        30.08S
CHEYENNE       CLEAR     57  40  52 W7        29.98F
TORRINGTON     PTCLDY    56  52  86 N7        29.85R
PINE BLUFFS    FAIR      55  43  62 S13       29.93R

$$


USA.gov is the U.S. government's official web portal to all federal, state and local government web resources and services.